Mount Carmel, IL

10:28 AM CST on December 10, 2019 (GMT -0600)
Mount Carmel Municipal

Weather History for KAJG - October, 2019

Change the Weather History Date:

Wednesday, October 2, 2019

  Actual Average (WUND) Record (WUND)
Temperature  
Mean Temperature 80 °F -  
Max Temperature 94 °F - - (-1)
Min Temperature 68 °F - - (-1)
Cooling Degree Days 16    
Growing Degree Days 30 (Base 50)    
Moisture  
Dew Point 65 °F    
Average Humidity 64    
Maximum Humidity 87    
Minimum Humidity 36    
Precipitation  
Precipitation 0.00 in - - ()
Sea Level Pressure  
Sea Level Pressure 29.96 in    
Wind  
Wind Speed 9 mph (WSW)    
Max Wind Speed 16 mph    
Max Gust Speed 22 mph    
Visibility 10 miles    
Events      
Averages and records for this station are not official NWS values.
T = Trace of Precipitation, MM = Missing Value Source: NWS Daily Summary

Daily Weather History Graph

Daily Weather History Graph

Search for Another Location

Airport or City:

Astronomy

Oct. 02, 2019 Rise Set
Actual Time 6:47 AM CDT 6:32 PM CDT
Civil Twilight 6:21 AM CDT 6:58 PM CDT
Nautical Twilight 5:50 AM CDT 7:29 PM CDT
Astronomical Twilight 5:19 AM CDT 8:00 PM CDT
Moon 11:09 AM CDT (10/2) 9:29 PM CDT (10/2)
Length of Visible Light 12h 37m
Length of Day
11h 44m
Waxing Crescent, 20% of the Moon is Illuminated
Oct 2
Waxing Crescent
Oct 5
First Quarter
Oct 13
Full
Oct 21
Last Quarter
Oct 27
New

Hourly Weather History & Observations

Time (CDT) Temp. Heat Index Dew Point Humidity Pressure Visibility Wind Dir Wind Speed Gust Speed Precip Events Conditions
12:15 AM 74.7 °F - 64.9 °F 72% 29.96 in 10.0 mi SSW 6.9 mph - N/A   Clear
12:35 AM 73.8 °F - 64.9 °F 74% 29.96 in 10.0 mi SSW 6.9 mph - N/A   Clear
12:55 AM 73.8 °F - 65.1 °F 74% 29.96 in 10.0 mi SW 6.9 mph - N/A   Clear
1:15 AM 73.4 °F - 65.1 °F 75% 29.96 in 10.0 mi North - - N/A   Clear
1:35 AM 72.3 °F - 64.9 °F 78% 29.96 in 10.0 mi North - - N/A   Clear
1:55 AM 71.8 °F - 64.8 °F 78% 29.96 in 10.0 mi North - - N/A   Clear
2:15 AM 71.4 °F - 64.9 °F 80% 29.96 in 10.0 mi North - - N/A   Clear
2:35 AM 71.6 °F - 64.9 °F 79% 29.95 in 10.0 mi North - - N/A   Clear
2:55 AM 70.7 °F - 64.8 °F 81% 29.95 in 10.0 mi North - - N/A   Clear
3:15 AM 70.7 °F - 64.6 °F 81% 29.95 in 10.0 mi North - - N/A   Clear
3:35 AM 70.7 °F - 64.6 °F 81% 29.95 in 10.0 mi North - - N/A   Clear
3:55 AM 70.5 °F - 64.8 °F 82% 29.95 in 10.0 mi North - - N/A   Clear
4:15 AM 69.4 °F - 64.0 °F 83% 29.95 in 10.0 mi North - - N/A   Clear
4:35 AM 69.8 °F - 64.4 °F 83% 29.95 in 10.0 mi North - - N/A   Clear
4:55 AM 69.6 °F - 64.4 °F 83% 29.96 in 10.0 mi North - - N/A   Clear
5:15 AM 69.6 °F - 64.6 °F 84% 29.96 in 10.0 mi North - - N/A   Clear
5:35 AM 70.0 °F - 64.9 °F 84% 29.97 in 10.0 mi North - - N/A   Clear
5:55 AM 70.2 °F - 64.9 °F 83% 29.97 in 10.0 mi North - - N/A   Clear
6:15 AM 69.6 °F - 64.6 °F 84% 29.98 in 10.0 mi North - - N/A   Clear
6:35 AM 69.4 °F - 64.8 °F 85% 29.99 in 10.0 mi North - - N/A   Clear
6:55 AM 68.9 °F - 64.8 °F 87% 29.99 in 10.0 mi North - - N/A   Clear
7:15 AM 69.3 °F - 65.1 °F 87% 29.99 in 10.0 mi North - - N/A   Clear
7:35 AM 70.3 °F - 65.8 °F 86% 29.99 in 10.0 mi North - - N/A   Clear
7:55 AM 72.7 °F - 66.6 °F 81% 29.99 in 10.0 mi SW 6.9 mph - N/A   Clear
8:15 AM 75.6 °F - 66.7 °F 74% 30.00 in 10.0 mi WSW 6.9 mph - N/A   Clear
8:35 AM 77.5 °F - 66.6 °F 69% 30.00 in 10.0 mi WSW 6.9 mph - N/A   Clear
8:55 AM 79.5 °F - 66.6 °F 64% 30.00 in 10.0 mi WSW 9.2 mph - N/A   Clear
9:15 AM 81.5 °F 83.7 °F 66.4 °F 60% 30.01 in 10.0 mi WSW 8.1 mph - N/A   Clear
9:35 AM 83.7 °F 86.0 °F 66.4 °F 56% 30.01 in 10.0 mi SW 10.4 mph - N/A   Clear
9:55 AM 84.6 °F 86.8 °F 66.0 °F 54% 30.00 in 10.0 mi SW 9.2 mph - N/A   Clear
10:15 AM 86.5 °F 88.4 °F 65.5 °F 49% 30.00 in 10.0 mi WSW 9.2 mph 16.1 mph N/A   Clear
10:35 AM 87.6 °F 89.4 °F 65.3 °F 47% 30.00 in 10.0 mi WSW 15.0 mph - N/A   Clear
10:55 AM 89.1 °F 91.3 °F 65.8 °F 46% 30.00 in 10.0 mi West 11.5 mph 17.3 mph N/A   Clear
11:15 AM 89.2 °F 91.3 °F 65.5 °F 45% 30.00 in 10.0 mi West 10.4 mph 19.6 mph N/A   Scattered Clouds
11:35 AM 88.0 °F 89.6 °F 65.1 °F 46% 30.00 in 10.0 mi West 13.8 mph 19.6 mph N/A   Scattered Clouds
11:55 AM 91.2 °F 93.3 °F 65.5 °F 42% 29.99 in 10.0 mi WSW 13.8 mph 17.3 mph N/A   Scattered Clouds
12:15 PM 91.4 °F 93.6 °F 65.3 °F 42% 29.99 in 10.0 mi West 11.5 mph 18.4 mph N/A   Mostly Cloudy
12:35 PM 90.9 °F 93.1 °F 65.3 °F 43% 29.98 in 10.0 mi West 15.0 mph 19.6 mph N/A   Scattered Clouds
12:55 PM 91.8 °F 93.4 °F 64.6 °F 40% 29.97 in 10.0 mi WSW 13.8 mph 21.9 mph N/A   Clear
1:15 PM 91.4 °F 93.2 °F 64.4 °F 41% 29.96 in 10.0 mi West 16.1 mph 19.6 mph N/A   Scattered Clouds
1:35 PM 92.5 °F 94.1 °F 64.2 °F 39% 29.95 in 10.0 mi West 12.7 mph 17.3 mph N/A   Scattered Clouds
1:50 PM 93.0 °F 94.6 °F 63.7 °F 38% 29.95 in 10.0 mi West 12.7 mph 17.3 mph N/A   Scattered Clouds
2:15 PM 92.8 °F 94.3 °F 63.9 °F 38% 29.93 in 10.0 mi SW 12.7 mph 18.4 mph N/A   Scattered Clouds
2:35 PM 93.6 °F 95.0 °F 63.7 °F 37% 29.93 in 10.0 mi West 13.8 mph 18.4 mph N/A   Clear
2:55 PM 93.0 °F 94.2 °F 63.3 °F 37% 29.93 in 10.0 mi West 8.1 mph - N/A   Clear
3:15 PM 93.2 °F 94.1 °F 62.8 °F 36% 29.92 in 10.0 mi SW 9.2 mph - N/A   Clear
3:35 PM 93.2 °F 94.1 °F 62.6 °F 36% 29.92 in 10.0 mi West 15.0 mph 19.6 mph N/A   Clear
3:55 PM 93.4 °F 94.3 °F 63.0 °F 36% 29.92 in 10.0 mi SW 9.2 mph - N/A   Scattered Clouds
4:15 PM 93.2 °F 94.1 °F 63.0 °F 36% 29.91 in 10.0 mi West 9.2 mph - N/A   Scattered Clouds
4:35 PM 92.5 °F 93.7 °F 63.5 °F 38% 29.91 in 10.0 mi WSW 8.1 mph - N/A   Clear
5:15 PM 91.4 °F 92.4 °F 63.5 °F 39% 29.92 in 10.0 mi West 8.1 mph - N/A   Clear
5:35 PM 90.5 °F 91.8 °F 63.5 °F 41% 29.92 in 10.0 mi West 6.9 mph - N/A   Clear
5:55 PM 88.7 °F 90.1 °F 64.0 °F 44% 29.92 in 10.0 mi WNW 4.6 mph - N/A   Clear
6:15 PM 86.9 °F 88.3 °F 64.4 °F 47% 29.92 in 10.0 mi West 3.5 mph - N/A   Clear
6:35 PM 85.3 °F 86.6 °F 64.0 °F 49% 29.92 in 5.0 mi Calm Calm - N/A   Haze
6:55 PM 82.2 °F 83.8 °F 64.8 °F 55% 29.93 in 10.0 mi Calm Calm - N/A   Clear
7:15 PM 79.7 °F - 66.6 °F 64% 29.93 in 10.0 mi Calm Calm - N/A   Clear
7:35 PM 77.7 °F - 64.0 °F 63% 29.93 in 10.0 mi North - - N/A   Clear
7:55 PM 76.1 °F - 62.8 °F 63% 29.93 in 10.0 mi North - - N/A   Clear
8:15 PM 76.8 °F - 65.8 °F 69% 29.93 in 10.0 mi North - - N/A   Clear
8:35 PM 75.4 °F - 66.2 °F 73% 29.93 in 10.0 mi Calm Calm - N/A   Scattered Clouds
8:55 PM 75.0 °F - 66.2 °F 74% 29.93 in 10.0 mi Calm Calm - N/A   Scattered Clouds
9:15 PM 72.5 °F - 65.5 °F 79% 29.93 in 10.0 mi North - - N/A   Clear
9:35 PM 71.8 °F - 64.4 °F 77% 29.93 in 10.0 mi North - - N/A   Clear
9:55 PM 71.8 °F - 65.7 °F 81% 29.92 in 10.0 mi North - - N/A   Clear
10:15 PM 72.0 °F - 65.5 °F 80% 29.93 in 10.0 mi North - - N/A   Clear
10:35 PM 72.1 °F - 65.1 °F 78% 29.94 in 10.0 mi North - - N/A   Clear
10:55 PM 71.8 °F - 64.6 °F 78% 29.94 in 10.0 mi North - - N/A   Clear
11:15 PM 69.6 °F - 63.5 °F 81% 29.95 in 10.0 mi North - - N/A   Clear
11:35 PM 68.9 °F - 64.8 °F 87% 29.96 in 10.0 mi North - - N/A   Clear
11:55 PM 72.5 °F - 63.5 °F 73% 29.96 in 10.0 mi North - - N/A   Clear